STARLINK-4673, 53589

Orbit data source: Space-Track

STARLINK-4673, 53589 is a payload satellite owned by SpaceX/Seattle (US) in LEO that was launched on Sun, 28 Aug 2022 UTC via an FALCON 9 launch vehicle from the Air Force Eastern Test Range (AFETR). Payload-class satellites include a variety of spacecraft equipped with specific instruments for various scientific and technological missions. These include communications satellites like Starlink; space stations such as the ISS; scientific satellites like the Hubble; Earth observation satellites from companies like Planet Labs, Umbra, and HawkEye 360; GPS; miniature CubeSats for education and research; and military/defense satellites.

Loading next visibility...
Identifier
53589, 2022-104B
Orbit
LEO
Country
Flag of USUS
Related business
Manufacturer
SpaceX/Seattle
Mission
Operational Commercial Communications
Bus & Motor
STARLINK, Unknown motor
Mass
300 kg wet, ~290 kg dry
Launch date (UTC)
2022-08-28 (3 years ago)
Launch vehicle
FALCON 9
Launch site
Air Force Eastern Test Range (AFETR)
Object type
Payload
Rocket body
Debris
Shape & HBR
Box + 1 Pan, 10.1 m
Radar Cross Section
13.562 m², Large (>1 m²)

Expand to show TLE details & history
Last TLE update: 20 hours ago

TLE from 20 hours ago
0 STARLINK-4673
1 53589U 22104B   25348.10447603  .00000247  00000-0  33616-4 0  9992
2 53589  53.2170 268.3796 0001262  90.4262 269.6875 15.08821953183024
Epoch: 2025-12-14T02:30Z
TLE epoch observation values (Epoch: 2025-12-14T02:30:26.728Z)
Latitude
-0.00003°
Longitude
147.74603°
Altitude
540.701 km
Speed
7.593 km/s
True Right ascension
17h 53m 31s
True Declination
0° 00' 00"
Sunlit
Object was in daylight at epoch
Visualization orbit readout
Latitude
Unknown
Longitude
Unknown
Altitude
Unknown
Speed
Unknown
Apparent Right ascension
Unknown
Apparent Declination
Unknown
Sunlit
N/A
Visualization observer readout
Local Sidereal Time
21:21:52
Azimuth
Unknown
Elevation
Unknown
Doppler factor
Unknown
Orbital elements
Apogee altitude
540.917 km
Perigee altitude
539.17 km
Semi-major axis
6,918.181 km
Eccentricity
0.00013
Inclination
53.217°
RAAN
268.3796°
Arg. of periapsis
90.4262°
True anomaly
269.67304°
Mean anomaly
269.6875°
Eccentric anomaly
269.68027°
Mean motion
3.77186 °/min
Orbital period
95.44 mins
BSTAR
0.000033616
Loading maneuver chart data...
Computing Atmospheric mass density...
Loading historical data...
Loading historical data...
Loading historical data...
Loading historical data...
Loading historical data...
Loading historical data...
Loading historical data...

Documentation

Showing up to 5 results
|